Regional Weather Roundup
Issued by NWS

Home | Current Version | Previous Version | Text Only | Print | Product List | Glossary On
Versions: 1 2 3 4 5 6 7 8 9 10 11 12 13 14 15 16 17 18 19 20 21 22 23 24 25 26 27 28 29 30 31 32 33 34 35 36 37 38 39 40 41 42 43 44 45 46 47 48 49 50
906
ASUS43 KLSX 130310
RWRMO

WEATHER SUMMARY FOR MISSOURI
NATIONAL WEATHER SERVICE SPRINGFIELD MO
900 PM CST FRI FEB 12 2016

NOTE: "FAIR" INDICATES FEW OR NO CLOUDS BELOW 12,000 FEET WITH NO
       SIGNIFICANT WEATHER AND/OR OBSTRUCTIONS TO VISIBILITY.
       CURRENT SKY AND/OR WEATHER CONDITIONS ARE NOT AVAILABLE FOR
       CHILLICOTHE AND FARMINGTON.

MOZ001>031-035>038-043-044-053-054-130400-
...NORTHERN AND WESTERN MISSOURI...

CITY           SKY/WX    TMP DP  RH WIND       PRES   REMARKS
KANSAS CTY INT CLEAR     20   8  60 N9        30.57R WCI   9
KANSAS C DTWN  CLEAR     24   7  48 N9        30.57R WCI  14
LEE`S SUMMIT   CLEAR     23   6  48 N12       30.54R WCI  12
ST JOSEPH      CLOUDY    18   7  62 N13       30.61R WCI   5
CHILLICOTHE      N/A     18   1  47 N9        30.59S WCI   7
KIRKSVILLE     CLEAR     13   1  59 NW8       30.55R WCI   2

$$
MOZ066>068-077>081-088>096-101>105-130400-
...SOUTHWEST MISSOURI...

CITY           SKY/WX    TMP DP  RH WIND       PRES   REMARKS
SPRINGFIELD    CLEAR     29  15  56 N9        30.46R WCI  20
JOPLIN         PTCLDY    32  18  56 NE10      30.49R WCI  24

$$
MOZ032>034-039>042-045>050-055>058-069>072-130400-
...CENTRAL MISSOURI...

CITY           SKY/WX    TMP DP  RH WIND       PRES   REMARKS
COLUMBIA       CLEAR     22  10  60 N12       30.51R WCI  10
JEFFERSON CITY CLEAR     26   9  48 N12       30.54R WCI  16
ROLLA          CLEAR     24  11  57 N12       30.45R WCI  13
SEDALIA        CLEAR     23   6  48 N10       30.55R WCI  12
WHITEMAN AFB   CLEAR     22   5  47 N10       30.54R WCI  11
WARRENSBURG    CLEAR     23   9  54 N7        30.56R WCI  15
OSAGE BEACH    CLEAR     27   7  43 N8        30.51R WCI  18

$$
MOZ051-052-059>065-130400-
...EAST CENTRAL MISSOURI...

CITY           SKY/WX    TMP DP  RH WIND       PRES   REMARKS
ST LOUIS INTL  CLEAR     23   9  55 NW15G22   30.48R WCI  10
SPIRIT OF STL  CLEAR     23   5  46 NW13G22   30.50R WCI  11
ST CHARLES     CLEAR     21   6  52 NW16G24   30.50R WCI   7

$$
MOZ072>076-082>087-097>100-106>115-130400-
...SOUTH CENTRAL AND SOUTHEAST MISSOURI...

CITY           SKY/WX    TMP DP  RH WIND       PRES   REMARKS
CAPE GIRARDEAU CLEAR     28  16  60 N10       30.44R WCI  19
FARMINGTON     CLEAR     26  13  57 N9G18     30.44R WCI  17
POPLAR BLUFF   CLEAR     33  20  58 N12       30.42R WCI  24
WEST PLAINS    CLEAR     31  14  49 N7        30.43R WCI  24

$$




USA.gov is the U.S. government's official web portal to all federal, state and local government web resources and services.